Time,TemperatureF,DewpointF,PressureIn,WindDirection,WindDirectionDegrees,WindSpeedMPH,WindSpeedGustMPH,Humidity,HourlyPrecipIn,Conditions,Clouds,dailyrainin,SoftwareType,DateUTC
2013-01-20 03:33:00,32.0,-99.9,-100.00,NNE,26,2.0,3.0,-999,-99.99,,,-99.99,,2013-01-20 09:33:00,
2013-01-20 03:43:00,32.0,-99.9,-100.00,NNE,26,2.0,3.0,-999,-99.99,,,-99.99,,2013-01-20 09:43:00,
2013-01-20 03:50:00,32.0,-99.9,-100.00,West,263,5.0,6.0,-999,-99.99,,,-99.99,,2013-01-20 09:50:00,
2013-01-20 03:53:00,32.0,-99.9,-100.00,NNE,26,2.0,3.0,-999,-99.99,,,-99.99,,2013-01-20 09:53:00,
2013-01-20 04:23:00,32.0,-99.9,-100.00,West,271,1.0,4.0,-999,-99.99,,,-99.99,,2013-01-20 10:23:00,
2013-01-20 04:33:00,32.0,-99.9,-100.00,West,263,5.0,6.0,-999,-99.99,,,-99.99,,2013-01-20 10:33:00,
2013-01-20 04:43:00,32.0,-99.9,-100.00,West,263,5.0,6.0,-999,-99.99,,,-99.99,,2013-01-20 10:43:00,
2013-01-20 07:50:00,29.0,-99.9,-100.00,West,278,2.0,3.0,-999,-99.99,,,-99.99,,2013-01-20 13:50:00,
2013-01-20 08:33:00,29.0,-99.9,-100.00,West,278,2.0,3.0,-999,-99.99,,,-99.99,,2013-01-20 14:33:00,
2013-01-20 08:43:00,29.0,-99.9,-100.00,West,278,2.0,3.0,-999,-99.99,,,-99.99,,2013-01-20 14:43:00,
2013-01-20 12:03:00,58.0,-99.9,-100.00,SW,234,4.0,4.0,-999,-99.99,,,-99.99,,2013-01-20 18:03:00,
2013-01-20 12:13:00,58.0,-99.9,-100.00,SW,234,4.0,4.0,-999,-99.99,,,-99.99,,2013-01-20 18:13:00,
2013-01-20 13:33:00,62.0,-99.9,-100.00,SSW,209,2.0,3.0,-999,-99.99,,,-99.99,,2013-01-20 19:33:00,
2013-01-20 13:43:00,62.0,-99.9,-100.00,SSW,209,2.0,3.0,-999,-99.99,,,-99.99,,2013-01-20 19:43:00,
2013-01-20 13:53:00,62.0,-99.9,-100.00,SSW,209,2.0,3.0,-999,-99.99,,,-99.99,,2013-01-20 19:53:00,
2013-01-20 14:03:00,64.0,-99.9,-100.00,East,97,1.0,1.0,-999,-99.99,,,-99.99,,2013-01-20 20:03:00,
2013-01-20 14:12:00,64.0,-99.9,-100.00,East,97,1.0,1.0,-999,-99.99,,,-99.99,,2013-01-20 20:12:00,
2013-01-20 14:23:00,65.0,-99.9,-100.00,SW,224,0.0,2.0,-999,-99.99,,,-99.99,,2013-01-20 20:23:00,
2013-01-20 14:33:00,65.0,-99.9,-100.00,SW,224,0.0,2.0,-999,-99.99,,,-99.99,,2013-01-20 20:33:00,
2013-01-20 14:43:00,65.0,-99.9,-100.00,SW,224,0.0,2.0,-999,-99.99,,,-99.99,,2013-01-20 20:43:00,
2013-01-20 15:54:00,64.0,-99.9,-100.00,SE,138,1.0,2.0,-999,-99.99,,,-99.99,,2013-01-20 21:54:00,
2013-01-20 16:03:00,64.0,-99.9,-100.00,SE,138,1.0,2.0,-999,-99.99,,,-99.99,,2013-01-20 22:03:00,
2013-01-20 17:03:00,66.0,-99.9,-100.00,ESE,112,0.0,2.0,-999,-99.99,,,-99.99,,2013-01-20 23:03:00,
2013-01-20 17:13:00,66.0,-99.9,-100.00,ESE,112,0.0,2.0,-999,-99.99,,,-99.99,,2013-01-20 23:13:00,
2013-01-20 17:23:00,66.0,-99.9,-100.00,ESE,112,0.0,2.0,-999,-99.99,,,-99.99,,2013-01-20 23:23:00,
2013-01-20 18:03:00,64.0,-99.9,-100.00,East,85,3.0,3.0,-999,-99.99,,,-99.99,,2013-01-21 00:03:00,
2013-01-20 18:13:00,64.0,-99.9,-100.00,East,85,3.0,3.0,-999,-99.99,,,-99.99,,2013-01-21 00:13:00,
2013-01-20 18:23:00,64.0,-99.9,-100.00,East,85,3.0,3.0,-999,-99.99,,,-99.99,,2013-01-21 00:23:00,
2013-01-20 18:33:00,63.0,-99.9,-100.00,East,99,2.0,3.0,-999,-99.99,,,-99.99,,2013-01-21 00:33:00,
2013-01-20 18:43:00,63.0,-99.9,-100.00,East,99,2.0,3.0,-999,-99.99,,,-99.99,,2013-01-21 00:43:00,
2013-01-20 19:33:00,56.0,-99.9,-100.00,South,184,1.0,2.0,-999,-99.99,,,-99.99,,2013-01-21 01:33:00,
2013-01-20 19:44:00,56.0,-99.9,-100.00,South,184,1.0,2.0,-999,-99.99,,,-99.99,,2013-01-21 01:44:00,
2013-01-20 19:53:00,56.0,-99.9,-100.00,South,184,1.0,2.0,-999,-99.99,,,-99.99,,2013-01-21 01:53:00,
2013-01-20 20:40:00,47.0,-99.9,-100.00,North,353,0.0,4.0,-999,-99.99,,,-99.99,,2013-01-21 02:40:00,
2013-01-20 21:23:00,47.0,-99.9,-100.00,North,353,0.0,4.0,-999,-99.99,,,-99.99,,2013-01-21 03:23:00,
2013-01-20 21:33:00,47.0,-99.9,-100.00,North,353,0.0,4.0,-999,-99.99,,,-99.99,,2013-01-21 03:33:00,
2013-01-20 22:53:00,42.0,-99.9,-100.00,WSW,241,5.0,8.0,-999,-99.99,,,-99.99,,2013-01-21 04:53:00,
2013-01-20 23:04:00,42.0,-99.9,-100.00,WSW,241,5.0,8.0,-999,-99.99,,,-99.99,,2013-01-21 05:04:00,
2013-01-20 23:34:00,40.0,-99.9,-100.00,WSW,257,5.0,6.0,-999,-99.99,,,-99.99,,2013-01-21 05:34:00,
2013-01-20 23:43:00,40.0,-99.9,-100.00,WSW,257,5.0,6.0,-999,-99.99,,,-99.99,,2013-01-21 05:43:00,